Location: Baili�vre
(50.0696°N, 4.2409°E)
Time: 09:45:39
(UTC+00:00)

Cosmos 2237 Rocket - Pass Details

Date: 08 August 2020
Orbit: 836 x 849 km, 71.0° (Epoch: 20 September)

Event Time Altitude Azimuth Distance (km) Brightness Sun altitude
Rises 22:34:32 0° 333° (NNW) 3,415 6.8 -22.1°
Reaches altitude 10° 22:37:39 10° 349° (N) 2,474 5.7 -22.3°
Maximum altitude 22:41:51 21° 37° (NE) 1,827 4.3 -22.5°
Drops below altitude 10° 22:46:01 10° 85° (E) 2,460 4.5 -22.7°
Enters shadow 22:46:59 - 92° (E) 2,731 4.7 -22.8°
